Presure
308 328 299 208 217 211 171 175 175 165 156 156 158 131 148 154 155 158 163 152 100 147 154 149 159 149 144 157 151 131 143 108 137 137 147 143 75 91 81 70 71 110 86 150 163 162 91 178 220
293 322 285 198 182 172 143 168 178 141 158 124 152 141 154 142 83 90 113 159 135 95 133 154 165 124 170 187 163 134 128 141 125 71 130 142 125 110 78 74 143 143 152 148 147 195 171 206 209
307 302 263 197 183 190 156 178 177 172 142 161 158 148 146 151 136 156 137 99 163 155 146 116 133 119 141 88 148 141 148 147 158 118 137 83 102 77 145 150 145 160 160 149 179 178 155 200 200
277 289 248 206 184 198 177 137 175 148 160 161 162 143 157 130 146 160 160 161 156 154 170 135 156 130 153 158 126 146 141 141 150 147 143 167 153 182 140 145 149 164 78 132 168 157 189 215 211
295 292 253 212 179 183 174 161 147 151 159 157 142 139 146 142 160 147 158 151 142 139 115 171 95 144 156 92 104 97 146 161 149 158 161 148 145 152 164 128 142 131 136 169 165 102 217 211 114
297 296 288 214 187 176 179 162 156 145 172 144 148 122 148 158 135 149 157 155 161 148 126 109 83 157 158 119 125 134 151 147 149 138 135 142 143 146 117 90 141 84 84 172 159 143 171 206 198
291 281 290 227 186 195 167 173 158 158 169 165 143 157 138 141 152 140 151 157 152 147 131 137 111 145 179 140 155 136 129 163 142 140 92 151 78 78 157 154 88 94 143 149 175 173 238 205 192
291 298 266 191 190 167 167 153 177 170 157 174 158 151 156 168 149 152 162 164 144 154 152 182 145 150 136 168 152 135 89 155 167 85 91 163 78 141 84 171 94 111 138 173 143 175 227 205 172
307 300 272 235 198 185 157 160 160 168 160 152 154 148 151 163 156 142 161 151 141 147 179 157 169 149 150 138 149 158 126 143 107 141 170 165 140 143 96 158 137 146 155 164 181 254 222 204 191
234 309 268 275 191 186 174 132 148 169 165 161 160 163 149 149 152 148 158 166 155 162 176 78 147 139 164 89 172 93 120 151 83 133 87 99 149 154 157 156 171 159 166 168 264 241 216 196 191
220 295 269 280 221 189 147 158 182 166 151 156 153 154 143 137 139 158 156 157 160 167 103 176 163 164 148 155 173 161 162 135 88 113 163 89 170 180 170 149 172 154 150 199 180 249 213 193 186
217 280 266 268 226 189 158 176 138 155 157 154 159 154 154 161 157 156 153 157 143 160 169 155 90 78 80 143 92 78 165 83 166 156 161 158 174 162 157 174 177 182 169 166 187 216 196 197 186
199 223 265 266 281 180 162 164 139 162 161 155 153 155 133 148 139 152 153 161 163 75 104 168 167 169 178 148 167 150 174 167 171 147 141 167 154 159 207 195 144 148 194 191 254 196 168 183 195
196 212 246 269 283 193 140 167 159 170 178 154 140 161 160 151 159 147 162 157 159 160 169 145 157 158 164 160 153 142 137 160 165 170 184 171 179 160 163 163 152 210 182 267 224 196 196 132 143
179 204 232 303 303 266 180 118 153 157 169 175 154 161 144 146 164 167 147 169 170 169 164 177 172 167 156 169 153 181 152 160 158 170 159 153 167 190 177 181 170 190 239 251 209 190 148 170 132
188 192 220 226 309 299 193 173 186 155 173 163 163 149 160 158 159 161 163 160 151 158 153 144 179 176 164 171 154 171 144 170 164 157 160 171 160 170 170 164 179 185 254 211 130 126 181 126 161
190 183 204 257 267 303 274 155 179 191 174 163 170 160 166 168 169 167 158 175 172 171 164 157 172 157 161 147 170 167 161 155 167 171 176 195 182 177 190 158 215 205 120 189 108 151 141 179 158
181 78 125 210 266 261 281 179 182 181 184 169 166 171 171 153 161 159 161 164 170 171 173 173 163 145 161 155 176 167 141 138 136 156 179 144 186 202 210 202 200 132 223 109 180 145 181 165 142
211 85 159 125 212 264 304 216 183 176 181 185 179 172 171 171 175 153 175 170 136 175 170 169 172 157 172 160 163 150 187 156 136 175 180 181 183 184 154 224 194 230 219 115 142 188 178 149 149
164 169 141 117 204 213 213 237 199 186 184 180 176 178 168 173 170 169 137 138 137 148 175 173 148 141 153 175 169 161 177 171 177 161 178 190 180 205 206 208 220 214 114 171 137 140 135 146 139
199 190 157 157 142 168 114 200 239 199 159 184 184 176 177 175 182 180 172 177 172 174 173 171 179 178 161 164 151 179 177 162 182 180 172 189 190 206 225 205 126 221 103 196 129 152 132 137 141
111 185 138 144 184 173 234 220 285 235 200 190 180 173 173 170 171 171 170 164 170 165 173 178 173 130 142 158 167 137 178 179 184 163 204 226 164 225 210 195 150 108 104 162 124 124 131 128 130
177 101 151 183 183 185 203 258 207 277 246 196 191 185 178 183 184 183 174 172 167 176 174 183 162 179 183 185 200 214 201 211 187 200 182 201 222 208 211 214 211 149 125 143 121 123 132 130 127
216 178 185 164 170 144 185 224 246 215 269 93 81 194 189 182 179 179 177 178 179 181 182 176 183 184 182 217 222 214 145 195 149 199 214 216 213 203 204 111 132 124 123 170 124 131 138 135 142
100 209 183 144 140 187 133 182 184 220 181 267 310 245 237 197 190 186 175 170 174 173 189 192 192 215 229 224 194 183 212 204 219 212 213 208 207 211 199 195 129 120 162 133 118 127 121 120 125
232 235 190 199 90 104 188 106 179 207 210 256 108 159 251 267 246 231 199 148 163 173 177 181 188 210 194 196 206 208 210 215 212 210 215 204 208 227 130 196 184 158 129 124 119 143 119 109 123
186 225 178 185 183 159 207 159 157 86 181 205 244 215 180 200 242 240 229 224 190 182 179 180 178 180 214 178 209 210 206 216 203 222 204 199 229 183 196 156 126 134 142 125 132 122 119 117 120
216 235 203 180 183 201 176 190 163 167 174 170 203 209 243 239 232 212 248 228 226 225 209 212 200 206 197 217 240 230 223 214 217 206 204 228 206 199 149 121 142 130 124 119 118 124 131 111 127
253 188 246 154 214 156 195 138 154 95 168 175 175 128 132 115 130 223 250 255 258 257 216 213 210 220 226 222 216 217 217 220 207 202 212 203 198 133 130 125 184 134 126 114 128 105 141 125 116
246 247 215 246 125 241 136 120 183 94 171 171 167 175 153 150 197 148 222 237 238 242 248 241 229 224 220 217 216 215 213 204 197 204 211 196 164 188 182 182 183 185 133 189 126 120 121 127 139
Wind_Speed
50 64 92 79 93 95 75 78 88 85 72 69 70 57 64 68 71 74 76 60 34 58 62 59 58 54 53 55 53 52 44 29 53 47 49 38 18 25 20 20 21 31 28 49 48 45 27 48 31
52 45 91 83 78 73 66 76 89 64 74 55 65 58 69 59 47 48 53 71 62 39 55 48 64 47 59 59 55 47 38 51 45 18 36 47 40 30 26 23 49 44 47 42 41 61 43 46 33
43 59 90 84 76 86 71 80 89 87 68 78 73 66 62 70 63 70 67 49 75 57 46 42 45 38 41 31 47 50 45 44 44 38 50 25 33 29 45 46 47 42 46 46 52 50 42 47 35
52 58 90 82 76 88 79 54 83 65 74 78 82 66 79 53 55 77 73 82 59 54 77 54 68 43 37 39 41 42 48 50 47 49 52 42 44 39 45 48 42 44 35 41 45 41 54 30 27
49 56 80 84 73 79 80 72 66 64 74 73 68 67 69 59 77 53 72 49 59 58 49 58 38 51 43 32 35 37 43 38 45 45 43 50 48 47 44 46 39 45 48 42 42 41 50 28 43
43 55 62 85 80 79 84 75 72 65 85 72 78 57 73 79 55 59 70 62 66 37 56 41 41 48 29 37 45 51 36 48 47 41 54 50 51 45 37 38 44 44 43 40 44 36 41 29 31
32 39 58 92 79 86 78 82 72 74 82 85 74 83 65 62 74 59 57 63 48 46 42 44 40 48 69 54 35 60 51 40 58 57 39 44 39 39 41 41 45 42 45 48 50 44 34 30 33
29 35 56 76 84 80 82 75 86 80 77 90 84 81 82 93 68 75 75 78 60 51 46 89 56 49 61 36 51 61 34 43 42 35 38 50 39 54 42 46 47 45 39 51 42 44 32 30 34
34 32 50 76 89 93 76 86 82 82 81 81 89 78 79 89 76 59 81 56 60 53 83 36 58 33 61 61 54 40 52 64 37 58 49 45 48 43 44 42 49 49 54 47 55 34 31 29 34
30 33 48 62 88 95 94 56 73 88 85 86 90 91 80 75 73 65 76 86 55 67 89 40 54 46 38 44 60 40 53 51 35 40 39 45 48 46 53 44 47 45 43 43 45 39 30 31 34
38 33 50 57 98 96 67 77 99 88 80 82 83 86 69 64 64 85 74 70 66 90 38 84 48 53 64 45 62 52 40 61 41 44 59 45 65 74 46 50 46 49 43 55 53 38 30 33 35
43 38 56 64 96 98 75 97 55 81 85 80 91 84 81 91 84 80 68 62 56 59 78 47 47 45 46 64 43 39 56 42 57 48 60 49 65 45 43 51 60 55 42 43 59 35 33 32 37
52 53 65 76 64 99 79 79 57 89 89 90 81 88 61 74 61 72 66 77 84 42 56 73 63 56 80 58 61 57 71 60 69 55 54 63 49 52 76 65 47 46 74 58 49 34 34 38 37
63 66 68 78 73 105 60 81 72 98 108 84 63 98 100 77 91 62 95 66 75 60 85 60 47 48 57 52 55 62 55 50 68 73 83 65 62 52 49 54 54 58 54 53 38 35 33 31 32
77 66 63 68 75 93 98 46 69 71 97 108 84 100 69 70 104 105 59 101 96 83 66 98 91 80 53 78 50 93 55 55 64 72 55 53 50 76 55 58 45 70 60 50 36 37 31 34 30
78 72 57 59 77 78 99 93 114 67 101 90 98 77 97 92 95 88 88 74 51 64 58 57 102 94 69 85 49 71 59 76 59 57 58 54 60 58 58 52 59 69 56 43 34 38 36 33 34
73 64 49 53 56 75 87 89 104 119 100 83 104 87 100 108 112 103 89 108 101 98 84 64 88 76 57 56 83 73 69 53 71 65 63 89 67 65 74 58 68 67 35 41 31 34 38 38 35
70 30 61 55 50 61 78 105 107 113 111 102 94 107 105 82 90 80 77 82 92 94 94 93 63 62 64 58 89 67 52 52 51 63 72 65 74 69 76 72 70 42 50 34 40 38 38 36 37
74 27 68 51 65 58 58 106 112 114 113 119 117 106 103 103 109 78 107 93 57 101 86 86 98 75 80 61 57 66 91 60 58 72 78 80 80 58 56 65 61 57 50 38 39 45 40 38 38
69 79 62 55 77 63 70 78 121 123 115 113 110 110 95 104 96 93 58 61 63 70 97 91 68 58 64 92 73 64 84 73 73 60 81 86 68 84 76 70 63 54 37 46 41 41 40 39 37
87 84 73 77 68 63 55 54 106 121 95 116 116 108 107 105 115 113 95 102 91 94 92 90 102 97 66 60 62 90 77 68 88 86 74 87 70 76 71 61 48 58 27 47 43 42 41 40 38
29 86 65 59 92 85 81 90 79 113 121 119 111 99 101 100 100 97 87 71 85 74 87 96 87 52 62 60 63 64 85 91 82 57 89 81 63 71 65 59 49 36 30 47 44 44 44 41 40
85 29 68 102 96 94 89 77 95 81 113 115 118 113 103 113 112 109 99 93 81 88 86 102 58 90 95 99 93 91 86 77 94 90 75 82 72 65 66 65 58 51 50 50 48 47 45 44 43
100 101 98 77 78 65 88 77 79 91 72 24 25 115 113 108 103 104 104 99 98 96 96 83 100 100 97 92 83 84 63 71 64 77 74 74 68 66 65 46 53 53 52 52 49 48 47 46 46
28 108 108 70 60 81 39 81 76 73 79 72 65 109 115 118 114 110 94 90 94 87 106 105 102 98 88 85 78 78 77 81 76 75 75 68 67 68 62 60 53 54 54 46 49 50 38 49 49
95 100 108 108 26 15 91 35 85 79 74 70 24 36 94 97 109 112 113 67 71 95 94 93 90 94 94 92 86 84 76 77 78 78 73 66 66 65 56 60 56 55 56 55 52 52 51 50 53
93 107 94 104 98 69 99 79 89 24 77 80 68 69 86 101 92 96 100 101 105 101 98 95 90 89 86 81 83 83 79 80 78 76 65 63 63 57 61 59 55 57 56 56 55 54 54 55 58
108 96 98 75 104 107 78 82 88 97 90 85 86 84 77 77 87 93 87 98 96 98 101 96 94 89 93 81 75 71 75 78 77 69 65 64 63 63 62 54 58 59 58 54 52 55 57 55 61
113 105 112 63 88 59 93 66 73 19 95 91 89 71 59 44 52 74 75 72 74 79 92 88 87 89 72 73 77 77 76 74 70 67 68 66 64 56 60 35 62 62 60 54 57 45 61 63 57
104 118 104 106 50 88 62 53 106 16 101 93 90 92 79 76 85 63 78 76 75 75 75 77 82 80 80 81 78 74 70 68 68 69 68 66 65 62 61 63 65 66 62 67 60 61 62 66 67
Wind_Direction
203 204 198 212 206 206 219 218 217 222 230 231 230 228 236 239 242 246 245 249 237 252 251 252 255 248 247 250 249 251 255 243 258 261 267 268 250 262 258 266 266 273 266 287 308 310 272 331 309
207 208 200 211 213 215 226 218 217 227 228 230 230 231 233 232 229 230 238 251 247 231 248 256 262 243 254 256 251 250 249 254 256 249 259 263 263 266 257 261 277 280 283 292 285 331 307 319 303
207 212 200 210 211 208 221 216 215 218 222 227 230 232 235 238 239 244 242 235 243 255 246 242 240 241 237 227 246 250 248 256 259 247 264 245 255 257 275 276 279 291 290 281 333 321 297 316 305
212 208 203 209 212 207 215 224 217 225 225 225 227 234 234 229 234 241 246 244 252 248 254 233 250 253 235 251 237 240 251 252 259 260 265 283 279 293 272 270 284 310 267 273 310 289 330 294 285
220 212 205 206 212 212 216 220 226 225 222 225 231 234 234 233 238 237 241 245 245 246 238 258 224 260 240 230 236 240 246 267 258 273 280 266 267 264 278 264 279 271 276 306 302 270 306 286 271
232 216 210 208 210 212 212 220 221 222 220 226 230 230 235 237 229 238 244 241 250 230 246 222 228 236 238 234 242 239 247 255 258 260 259 259 263 265 271 268 280 262 266 304 285 283 309 284 280
231 226 215 209 207 206 215 219 221 218 219 221 232 232 234 235 239 229 238 245 236 230 210 214 234 214 268 240 232 241 248 276 247 252 260 261 261 265 271 271 265 269 275 280 325 312 273 277 279
238 238 214 211 203 207 211 216 222 217 220 219 228 233 235 233 238 236 244 248 229 243 227 255 222 230 237 271 247 246 248 244 290 257 256 281 267 262 265 297 268 273 272 291 280 318 267 271 275
246 224 210 208 198 206 215 213 216 220 218 220 227 231 233 233 239 230 244 240 231 231 253 238 260 253 243 239 229 268 245 245 262 253 290 272 259 263 268 271 268 275 274 294 318 282 258 265 274
233 216 202 211 208 201 205 237 218 218 220 221 226 229 233 235 240 237 243 248 243 247 255 234 217 248 254 238 278 263 246 247 259 276 261 267 263 263 277 267 300 285 295 289 298 280 258 266 270
227 210 203 218 204 202 225 214 211 215 220 222 225 229 230 233 233 243 245 244 247 252 230 262 249 250 231 234 275 274 267 246 265 261 284 270 283 295 287 263 295 282 283 314 315 276 260 265 273
217 216 203 216 205 203 220 206 230 218 220 224 226 230 232 236 239 242 241 242 211 245 255 240 250 247 248 231 254 259 273 261 281 256 286 270 286 272 272 295 298 311 290 275 310 270 269 262 269
214 223 206 212 210 208 225 218 230 215 217 223 225 231 232 231 232 237 236 243 249 236 246 250 252 262 269 229 268 236 280 281 278 255 252 280 264 271 297 302 268 271 311 312 286 274 263 272 265
217 221 218 217 207 207 222 221 225 214 215 223 237 227 233 235 238 237 245 240 244 243 254 219 242 236 252 257 237 238 254 268 271 286 285 279 286 268 260 274 265 288 302 292 269 272 266 264 256
227 222 227 221 215 203 216 222 235 231 217 216 226 227 240 237 238 240 232 245 248 253 256 260 260 262 241 269 241 273 250 273 264 282 266 261 278 300 293 303 286 313 292 285 270 269 257 264 266
224 224 220 220 221 205 215 219 211 237 221 223 221 232 232 237 240 244 248 246 239 247 239 227 258 262 261 265 251 271 244 278 276 265 268 277 257 280 263 270 298 304 287 274 254 260 266 265 268
225 226 213 229 220 214 207 218 220 217 224 229 225 228 228 231 235 240 241 244 247 250 252 249 259 254 253 243 267 269 264 258 275 280 283 291 270 277 300 267 293 297 252 269 266 253 257 268 263
221 238 232 219 224 213 209 214 218 224 220 226 231 229 230 233 236 239 241 247 248 250 254 256 253 236 259 243 271 262 249 249 251 270 282 258 277 274 290 293 293 250 279 260 268 249 266 265 262
210 241 219 226 210 213 203 209 215 222 223 222 225 231 233 234 236 241 240 243 238 251 253 256 258 251 265 250 256 244 277 254 253 277 285 281 289 288 254 282 291 281 277 257 249 265 266 259 262
216 213 221 230 212 214 213 202 215 218 222 224 229 230 231 234 238 240 241 239 241 246 254 258 237 245 239 270 266 261 276 273 277 257 277 285 288 285 285 285 282 275 254 260 251 253 261 262 267
209 204 221 225 224 217 230 218 209 217 219 222 225 230 232 236 237 239 242 244 247 250 253 254 258 260 250 257 259 271 273 264 280 281 264 284 267 280 277 276 243 277 268 264 256 257 261 265 267
244 207 222 223 219 216 210 208 208 213 218 221 225 229 231 234 238 242 243 243 248 244 252 255 257 251 245 247 267 248 272 275 272 255 274 274 266 274 280 271 246 259 272 255 260 264 264 269 269
214 240 216 219 221 218 209 211 216 212 214 221 224 228 231 235 237 240 244 246 248 252 253 258 244 266 268 268 265 263 264 259 274 271 278 276 272 276 276 273 274 250 253 262 262 267 264 267 271
208 219 215 211 224 216 214 204 216 219 218 211 213 229 231 233 238 240 243 247 249 252 256 256 261 263 264 258 255 258 243 256 254 268 266 268 271 271 271 252 240 250 255 261 262 261 263 267 270
232 212 221 220 214 218 221 217 227 220 225 223 220 222 225 233 236 239 243 247 250 252 253 254 255 252 249 251 254 251 256 261 261 261 263 269 270 269 268 266 245 254 261 268 267 264 271 277 274
214 213 219 217 250 246 218 209 219 220 223 223 216 215 225 226 228 231 238 231 234 249 251 253 252 249 255 254 252 253 258 256 257 262 261 263 264 265 243 264 260 263 257 260 266 263 274 283 277
220 213 224 218 216 231 214 218 231 229 223 222 220 223 226 228 226 227 230 233 242 244 246 247 248 250 248 254 254 255 254 254 258 259 258 258 259 257 263 248 253 250 252 261 262 269 273 278 279
216 215 220 222 220 218 224 208 224 233 228 231 222 223 221 222 226 230 229 232 234 235 240 242 246 247 250 251 248 245 248 251 254 256 258 257 257 259 246 251 255 252 259 266 270 270 273 283 274
216 220 216 218 217 230 218 230 211 239 232 227 229 231 239 242 223 228 227 228 229 233 240 242 244 247 239 242 245 244 248 249 253 255 258 256 258 247 246 259 261 254 259 274 270 284 270 275 287
215 218 220 218 233 216 207 242 214 200 229 229 228 229 223 224 230 231 229 227 227 228 227 227 231 234 238 242 243 246 249 250 251 254 254 255 250 258 259 262 263 268 260 272 269 277 278 275 276